Regional Weather Roundup
Issued by NWS

Home | Current Version | Previous Version | Graphics & Text | Print | Product List | Glossary On
Versions: 1 2 3 4 5 6 7 8 9 10 11 12 13 14 15 16 17 18 19 20 21 22 23 24 25 26 27 28 29 30 31 32 33 34 35 36 37 38 39 40 41 42 43 44 45 46 47 48 49 50
000
ASUS43 KBIS 072110
RWRND

NORTH DAKOTA REGIONAL WEATHER ROUNDUP
NATIONAL WEATHER SERVICE BISMARCK ND
300 PM CST SUN FEB 07 2016

NOTE: "FAIR" INDICATES FEW OR NO CLOUDS BELOW 12,000 FEET WITH NO
SIGNIFICANT WEATHER AND/OR OBSTRUCTIONS TO VISIBILITY.


NDZ001>003-009>011-017-072200-
NORTHWEST NORTH DAKOTA

CITY           SKY/WX    TMP DP  RH WIND       PRES   REMARKS
WILLISTON      SUNNY     37  18  46 NW30G43   30.18R
MINOT          FLURRIES  32  16  51 NW35G49   30.00R WCI  17
MINOT AFB      CLOUDY    30  18  60 NW38G45   29.99R WCI  13
$$

NDZ018>021-031>035-040>046-072200-
SOUTHWEST NORTH DAKOTA

CITY           SKY/WX    TMP DP  RH WIND       PRES   REMARKS
BISMARCK       CLOUDY    34  18  52 NW31G54   30.00R
DICKINSON      MOSUNNY   35  11  36 NW37G49   30.09R
GARRISON         N/A     32  17  54 NW45G59   29.99R WCI  15
HETTINGER ARPT MOSUNNY   35  10  35 NW40G59   30.10R WCI  20
$$

NDZ004>008-012>016-024-026-027-054-072200-
NORTHEAST NORTH DAKOTA

CITY           SKY/WX    TMP DP  RH WIND       PRES   REMARKS
GRAND FORKS    LGT SNOW  20   9  62 NW38G46   29.82R BLWGSNOWWCI  -1
GRND FRKS AFB  CLOUDY    19   9  63 N24G45    29.83R WCI   2
DEVILS LAKE    FLURRIES  19  13  77 NW28G40   29.87R WCI   1
$$

NDZ022-023-025-028>030-036>039-047>053-072200-
SOUTHEAST NORTH DAKOTA

CITY           SKY/WX    TMP DP  RH WIND       PRES   REMARKS
FARGO          LGT SNOW  23  18  81 N32G40    29.81R VSB 1   WCI   5
JAMESTOWN      LGT SNOW  23  16  74 NW30G41   29.85R WCI   5
$$




USA.gov is the U.S. government's official web portal to all federal, state and local government web resources and services.